Anzahl Datensätze: 286
min. Temperatur: 10.1 °C
max. Temperatur: 13.9 °C
max. Windgeschwindigkeit: 27.0 km/h
Niederschlagsumme: 0.4 mm
| Datum |
Zeit |
Temp °C |
Feuchte % |
Taupunkt °C |
Luftdruck hPa |
Wind km/h |
Windrichtung |
Strahlung w/m² |
Niederschlag mm |
|---|---|---|---|---|---|---|---|---|---|
| 15.11.2025 | 00:02 | 10.2 | 89 | 8.5 | 1008.7 | 4.3 | W | 0 | 0.0 |
| 15.11.2025 | 00:07 | 10.2 | 89 | 8.5 | 1008.8 | 6.1 | W | 0 | 0.0 |
| 15.11.2025 | 00:12 | 10.2 | 90 | 8.6 | 1008.8 | 0.0 | NNW | 0 | 0.0 |
| 15.11.2025 | 00:17 | 10.2 | 89 | 8.5 | 1009.0 | 6.1 | S | 0 | 0.0 |
| 15.11.2025 | 00:22 | 10.2 | 90 | 8.6 | 1008.9 | 0.0 | S | 0 | 0.0 |
| 15.11.2025 | 00:27 | 10.2 | 90 | 8.6 | 1008.9 | 0.0 | S | 0 | 0.0 |
| 15.11.2025 | 00:32 | 10.2 | 90 | 8.6 | 1008.9 | 4.3 | S | 0 | 0.0 |
| 15.11.2025 | 00:37 | 10.2 | 90 | 8.6 | 1009.1 | 0.0 | WSW | 0 | 0.0 |
| 15.11.2025 | 00:42 | 10.2 | 90 | 8.6 | 1009.0 | 0.0 | WSW | 0 | 0.0 |
| 15.11.2025 | 00:47 | 10.2 | 90 | 8.6 | 1009.0 | 0.0 | WSW | 0 | 0.0 |
| 15.11.2025 | 00:52 | 10.2 | 90 | 8.6 | 1008.9 | 0.0 | WSW | 0 | 0.0 |
| 15.11.2025 | 00:57 | 10.2 | 90 | 8.6 | 1008.9 | 0.0 | WSW | 0 | 0.0 |
| 15.11.2025 | 01:02 | 10.2 | 89 | 8.5 | 1009.1 | 8.3 | SSW | 0 | 0.0 |
| 15.11.2025 | 01:07 | 10.2 | 90 | 8.6 | 1009.0 | 6.1 | S | 0 | 0.0 |
| 15.11.2025 | 01:12 | 10.1 | 90 | 8.5 | 1009.0 | 4.3 | S | 0 | 0.0 |
| 15.11.2025 | 01:17 | 10.1 | 90 | 8.5 | 1009.0 | 6.1 | SSW | 0 | 0.0 |
| 15.11.2025 | 01:22 | 10.1 | 90 | 8.5 | 1009.0 | 1.8 | SSW | 0 | 0.0 |
| 15.11.2025 | 01:28 | 10.1 | 90 | 8.5 | 1009.1 | 6.1 | SSW | 0 | 0.0 |
| 15.11.2025 | 01:33 | 10.1 | 90 | 8.5 | 1009.1 | 4.3 | SSW | 0 | 0.0 |
| 15.11.2025 | 01:38 | 10.1 | 89 | 8.4 | 1009.1 | 4.3 | S | 0 | 0.0 |
| 15.11.2025 | 01:43 | 10.2 | 89 | 8.5 | 1009.1 | 4.3 | S | 0 | 0.0 |
| 15.11.2025 | 01:48 | 10.2 | 89 | 8.5 | 1009.2 | 4.3 | S | 0 | 0.0 |
| 15.11.2025 | 01:53 | 10.2 | 89 | 8.5 | 1009.3 | 8.3 | SSW | 0 | 0.0 |
| 15.11.2025 | 01:58 | 10.2 | 90 | 8.6 | 1009.2 | 6.1 | S | 0 | 0.0 |
| 15.11.2025 | 02:03 | 10.3 | 90 | 8.7 | 1009.4 | 1.8 | SSW | 0 | 0.0 |
| 15.11.2025 | 02:08 | 10.3 | 89 | 8.6 | 1009.6 | 10.4 | S | 0 | 0.0 |
| 15.11.2025 | 02:13 | 10.4 | 89 | 8.7 | 1009.6 | 12.6 | S | 0 | 0.0 |
| 15.11.2025 | 02:18 | 10.6 | 88 | 8.7 | 1009.8 | 6.1 | S | 0 | 0.0 |
| 15.11.2025 | 02:23 | 10.6 | 88 | 8.7 | 1009.6 | 6.1 | SW | 0 | 0.0 |
| 15.11.2025 | 02:28 | 10.7 | 88 | 8.8 | 1009.6 | 6.1 | SSW | 0 | 0.0 |
| 15.11.2025 | 02:33 | 10.8 | 87 | 8.7 | 1009.7 | 4.3 | S | 0 | 0.0 |
| 15.11.2025 | 02:38 | 10.9 | 87 | 8.8 | 1009.5 | 4.3 | SSW | 0 | 0.0 |
| 15.11.2025 | 02:43 | 10.9 | 87 | 8.8 | 1009.6 | 6.1 | SSW | 0 | 0.0 |
| 15.11.2025 | 02:48 | 10.9 | 87 | 8.8 | 1009.5 | 6.1 | SSW | 0 | 0.0 |
| 15.11.2025 | 02:53 | 11.0 | 87 | 8.9 | 1009.6 | 6.1 | SSW | 0 | 0.0 |
| 15.11.2025 | 02:58 | 11.1 | 86 | 8.8 | 1009.6 | 4.3 | SSW | 0 | 0.0 |
| 15.11.2025 | 03:03 | 11.1 | 87 | 9.0 | 1009.6 | 4.3 | SSW | 0 | 0.0 |
| 15.11.2025 | 03:08 | 11.1 | 87 | 9.0 | 1009.7 | 4.3 | SSW | 0 | 0.2 |
| 15.11.2025 | 03:13 | 11.1 | 87 | 9.0 | 1009.6 | 4.3 | SSW | 0 | 0.2 |
| 15.11.2025 | 03:18 | 11.1 | 87 | 9.0 | 1009.8 | 4.3 | SSW | 0 | 0.2 |
| 15.11.2025 | 03:23 | 11.1 | 87 | 9.0 | 1009.7 | 0.0 | SW | 0 | 0.2 |
| 15.11.2025 | 03:28 | 11.1 | 88 | 9.2 | 1009.5 | 6.1 | SW | 0 | 0.2 |
| 15.11.2025 | 03:33 | 11.1 | 88 | 9.2 | 1009.5 | 0.0 | SW | 0 | 0.2 |
| 15.11.2025 | 03:38 | 11.1 | 88 | 9.2 | 1009.3 | 4.3 | W | 0 | 0.2 |
| 15.11.2025 | 03:43 | 11.1 | 88 | 9.2 | 1009.2 | 6.1 | W | 0 | 0.2 |
| 15.11.2025 | 03:48 | 11.0 | 88 | 9.1 | 1009.1 | 8.3 | W | 0 | 0.2 |
| 15.11.2025 | 03:53 | 10.9 | 89 | 9.2 | 1009.1 | 4.3 | WSW | 0 | 0.2 |
| 15.11.2025 | 03:58 | 10.9 | 89 | 9.2 | 1009.3 | 1.8 | WSW | 0 | 0.2 |
| 15.11.2025 | 04:03 | 10.9 | 89 | 9.2 | 1009.4 | 4.3 | SW | 0 | 0.2 |
| 15.11.2025 | 04:08 | 10.9 | 89 | 9.2 | 1009.3 | 1.8 | SW | 0 | 0.2 |
| 15.11.2025 | 04:13 | 10.9 | 89 | 9.2 | 1009.3 | 4.3 | SW | 0 | 0.2 |
| 15.11.2025 | 04:18 | 10.9 | 89 | 9.2 | 1009.3 | 0.0 | SW | 0 | 0.2 |
| 15.11.2025 | 04:23 | 10.9 | 89 | 9.2 | 1009.3 | 0.0 | SW | 0 | 0.2 |
| 15.11.2025 | 04:29 | 10.8 | 89 | 9.1 | 1009.3 | 0.0 | SW | 0 | 0.2 |
| 15.11.2025 | 04:34 | 10.8 | 89 | 9.1 | 1009.2 | 0.0 | SW | 0 | 0.2 |
| 15.11.2025 | 04:39 | 10.8 | 90 | 9.2 | 1009.3 | 4.3 | SW | 0 | 0.2 |
| 15.11.2025 | 04:44 | 10.8 | 90 | 9.2 | 1009.3 | 1.8 | SW | 0 | 0.2 |
| 15.11.2025 | 04:49 | 10.8 | 90 | 9.2 | 1009.3 | 4.3 | SW | 0 | 0.2 |
| 15.11.2025 | 04:54 | 10.7 | 90 | 9.1 | 1009.3 | 1.8 | SW | 0 | 0.2 |
| 15.11.2025 | 04:59 | 10.7 | 90 | 9.1 | 1009.3 | 0.0 | SW | 0 | 0.2 |
| 15.11.2025 | 05:04 | 10.7 | 90 | 9.1 | 1009.3 | 1.8 | SW | 0 | 0.2 |
| 15.11.2025 | 05:09 | 10.6 | 90 | 9.0 | 1009.1 | 0.0 | SW | 0 | 0.2 |
| 15.11.2025 | 05:14 | 10.6 | 90 | 9.0 | 1009.1 | 0.0 | SW | 0 | 0.2 |
| 15.11.2025 | 05:19 | 10.5 | 90 | 8.9 | 1009.2 | 0.0 | SW | 0 | 0.2 |
| 15.11.2025 | 05:24 | 10.4 | 90 | 8.8 | 1009.1 | 0.0 | SW | 0 | 0.2 |
| 15.11.2025 | 05:29 | 10.4 | 90 | 8.8 | 1009.1 | 0.0 | SW | 0 | 0.2 |
| 15.11.2025 | 05:34 | 10.3 | 90 | 8.7 | 1009.1 | 0.0 | SW | 0 | 0.2 |
| 15.11.2025 | 05:39 | 10.3 | 90 | 8.7 | 1009.1 | 1.8 | SW | 0 | 0.2 |
| 15.11.2025 | 05:44 | 10.3 | 91 | 8.9 | 1009.1 | 4.3 | SW | 0 | 0.2 |
| 15.11.2025 | 05:49 | 10.3 | 91 | 8.9 | 1009.1 | 1.8 | SW | 0 | 0.2 |
| 15.11.2025 | 05:54 | 10.3 | 91 | 8.9 | 1009.2 | 4.3 | SW | 0 | 0.2 |
| 15.11.2025 | 05:59 | 10.3 | 91 | 8.9 | 1009.2 | 0.0 | SW | 0 | 0.2 |
| 15.11.2025 | 06:04 | 10.2 | 91 | 8.8 | 1009.2 | 0.0 | SW | 0 | 0.2 |
| 15.11.2025 | 06:09 | 10.2 | 91 | 8.8 | 1009.2 | 0.0 | SW | 0 | 0.2 |
| 15.11.2025 | 06:14 | 10.2 | 91 | 8.8 | 1009.1 | 4.3 | SW | 0 | 0.2 |
| 15.11.2025 | 06:19 | 10.2 | 91 | 8.8 | 1009.1 | 0.0 | SW | 0 | 0.2 |
| 15.11.2025 | 06:24 | 10.2 | 91 | 8.8 | 1008.8 | 4.3 | SW | 0 | 0.2 |
| 15.11.2025 | 06:29 | 10.2 | 91 | 8.8 | 1008.9 | 1.8 | SW | 0 | 0.2 |
| 15.11.2025 | 06:34 | 10.2 | 92 | 9.0 | 1008.9 | 0.0 | SW | 0 | 0.2 |
| 15.11.2025 | 06:39 | 10.2 | 92 | 9.0 | 1009.0 | 0.0 | SW | 0 | 0.2 |
| 15.11.2025 | 06:44 | 10.2 | 92 | 9.0 | 1009.4 | 1.8 | SW | 0 | 0.2 |
| 15.11.2025 | 06:49 | 10.2 | 92 | 9.0 | 1009.5 | 0.0 | SW | 0 | 0.2 |
| 15.11.2025 | 06:54 | 10.2 | 92 | 9.0 | 1009.7 | 4.3 | SSO | 0 | 0.2 |
| 15.11.2025 | 06:59 | 10.2 | 92 | 9.0 | 1009.5 | 0.0 | SSO | 0 | 0.2 |
| 15.11.2025 | 07:04 | 10.3 | 92 | 9.1 | 1009.3 | 0.0 | SSO | 0 | 0.2 |
| 15.11.2025 | 07:09 | 10.2 | 92 | 9.0 | 1009.5 | 0.0 | SSO | 0 | 0.2 |
| 15.11.2025 | 07:14 | 10.3 | 92 | 9.1 | 1009.4 | 0.0 | SSO | 0 | 0.2 |
| 15.11.2025 | 07:19 | 10.3 | 92 | 9.1 | 1009.5 | 0.0 | SSO | 0 | 0.2 |
| 15.11.2025 | 07:24 | 10.3 | 92 | 9.1 | 1009.5 | 0.0 | SSO | 0 | 0.2 |
| 15.11.2025 | 07:29 | 10.3 | 92 | 9.1 | 1009.3 | 0.0 | SSO | 0 | 0.2 |
| 15.11.2025 | 07:35 | 10.3 | 92 | 9.1 | 1009.4 | 4.3 | W | 0 | 0.2 |
| 15.11.2025 | 07:40 | 10.3 | 92 | 9.1 | 1009.4 | 0.0 | W | 0 | 0.2 |
| 15.11.2025 | 07:45 | 10.3 | 92 | 9.1 | 1009.6 | 1.8 | SSO | 0 | 0.2 |
| 15.11.2025 | 07:50 | 10.3 | 92 | 9.1 | 1009.5 | 0.0 | OSO | 0 | 0.2 |
| 15.11.2025 | 07:55 | 10.3 | 92 | 9.1 | 1009.7 | 0.0 | OSO | 0 | 0.2 |
| 15.11.2025 | 08:00 | 10.3 | 92 | 9.1 | 1009.7 | 4.3 | W | 5 | 0.2 |
| 15.11.2025 | 08:05 | 10.3 | 92 | 9.1 | 1009.8 | 0.0 | W | 5 | 0.2 |
| 15.11.2025 | 08:10 | 10.3 | 92 | 9.1 | 1009.8 | 1.8 | W | 5 | 0.2 |
| 15.11.2025 | 08:15 | 10.3 | 92 | 9.1 | 1010.0 | 0.0 | W | 5 | 0.2 |
| 15.11.2025 | 08:20 | 10.3 | 92 | 9.1 | 1009.9 | 4.3 | W | 9 | 0.2 |
| 15.11.2025 | 08:25 | 10.3 | 92 | 9.1 | 1009.9 | 0.0 | W | 12 | 0.2 |
| 15.11.2025 | 08:30 | 10.3 | 92 | 9.1 | 1009.9 | 0.0 | W | 14 | 0.2 |
| 15.11.2025 | 08:35 | 10.3 | 92 | 9.1 | 1009.9 | 6.1 | WNW | 14 | 0.2 |
| 15.11.2025 | 08:40 | 10.3 | 92 | 9.1 | 1010.1 | 4.3 | WNW | 14 | 0.2 |
| 15.11.2025 | 08:45 | 10.3 | 93 | 9.2 | 1010.1 | 0.0 | WNW | 18 | 0.2 |
| 15.11.2025 | 08:50 | 10.4 | 93 | 9.3 | 1010.0 | 0.0 | WNW | 23 | 0.2 |
| 15.11.2025 | 08:55 | 10.4 | 93 | 9.3 | 1010.1 | 0.0 | WNW | 26 | 0.2 |
| 15.11.2025 | 09:00 | 10.4 | 93 | 9.3 | 1010.1 | 0.0 | WNW | 39 | 0.2 |
| 15.11.2025 | 09:05 | 10.4 | 93 | 9.3 | 1010.1 | 0.0 | WNW | 53 | 0.2 |
| 15.11.2025 | 09:10 | 10.5 | 93 | 9.4 | 1010.0 | 0.0 | WNW | 47 | 0.2 |
| 15.11.2025 | 09:15 | 10.6 | 93 | 9.5 | 1010.2 | 0.0 | WNW | 40 | 0.2 |
| 15.11.2025 | 09:20 | 10.6 | 93 | 9.5 | 1010.2 | 0.0 | WNW | 40 | 0.2 |
| 15.11.2025 | 09:25 | 10.7 | 93 | 9.6 | 1010.0 | 4.3 | WNW | 39 | 0.2 |
| 15.11.2025 | 09:30 | 10.8 | 93 | 9.7 | 1010.1 | 6.1 | W | 46 | 0.2 |
| 15.11.2025 | 09:35 | 10.9 | 93 | 9.8 | 1010.1 | 1.8 | W | 44 | 0.2 |
| 15.11.2025 | 09:40 | 10.9 | 93 | 9.8 | 1010.1 | 0.0 | W | 40 | 0.2 |
| 15.11.2025 | 09:45 | 11.1 | 93 | 10.0 | 1010.1 | 1.8 | W | 42 | 0.2 |
| 15.11.2025 | 09:50 | 11.1 | 93 | 10.0 | 1010.3 | 0.0 | W | 42 | 0.2 |
| 15.11.2025 | 09:55 | 11.2 | 93 | 10.1 | 1010.2 | 0.0 | W | 49 | 0.2 |
| 15.11.2025 | 10:00 | 11.2 | 93 | 10.1 | 1010.3 | 0.0 | W | 49 | 0.2 |
| 15.11.2025 | 10:05 | 11.2 | 93 | 10.1 | 1010.3 | 0.0 | W | 51 | 0.2 |
| 15.11.2025 | 10:10 | 11.3 | 93 | 10.2 | 1010.3 | 0.0 | W | 47 | 0.2 |
| 15.11.2025 | 10:15 | 11.3 | 93 | 10.2 | 1010.3 | 1.8 | W | 53 | 0.2 |
| 15.11.2025 | 10:20 | 11.3 | 93 | 10.2 | 1010.4 | 0.0 | O | 65 | 0.2 |
| 15.11.2025 | 10:26 | 11.4 | 93 | 10.3 | 1010.4 | 0.0 | W | 76 | 0.2 |
| 15.11.2025 | 10:31 | 11.6 | 93 | 10.5 | 1010.4 | 0.0 | W | 86 | 0.2 |
| 15.11.2025 | 10:36 | 11.9 | 92 | 10.6 | 1010.5 | 0.0 | W | 90 | 0.2 |
| 15.11.2025 | 10:41 | 12.1 | 91 | 10.7 | 1010.4 | 0.0 | O | 100 | 0.2 |
| 15.11.2025 | 10:46 | 12.2 | 91 | 10.8 | 1010.3 | 4.3 | O | 116 | 0.2 |
| 15.11.2025 | 10:51 | 12.3 | 91 | 10.9 | 1010.4 | 6.1 | O | 127 | 0.2 |
| 15.11.2025 | 10:56 | 12.5 | 90 | 10.9 | 1010.3 | 0.0 | O | 130 | 0.2 |
| 15.11.2025 | 11:01 | 12.6 | 89 | 10.8 | 1010.3 | 0.0 | O | 142 | 0.2 |
| 15.11.2025 | 11:06 | 12.9 | 89 | 11.1 | 1010.3 | 0.0 | O | 174 | 0.2 |
| 15.11.2025 | 11:11 | 13.0 | 88 | 11.1 | 1010.3 | 0.0 | O | 137 | 0.2 |
| 15.11.2025 | 11:16 | 13.2 | 89 | 11.4 | 1010.3 | 0.0 | O | 114 | 0.2 |
| 15.11.2025 | 11:21 | 13.2 | 88 | 11.3 | 1010.2 | 0.0 | O | 109 | 0.2 |
| 15.11.2025 | 11:26 | 13.3 | 89 | 11.5 | 1010.0 | 0.0 | O | 84 | 0.2 |
| 15.11.2025 | 11:31 | 13.3 | 88 | 11.4 | 1010.0 | 1.8 | O | 62 | 0.2 |
| 15.11.2025 | 11:36 | 13.3 | 89 | 11.5 | 1010.0 | 0.0 | O | 53 | 0.2 |
| 15.11.2025 | 11:41 | 13.2 | 90 | 11.6 | 1010.0 | 0.0 | O | 46 | 0.2 |
| 15.11.2025 | 11:46 | 13.1 | 91 | 11.7 | 1010.1 | 0.0 | O | 47 | 0.2 |
| 15.11.2025 | 11:51 | 13.0 | 91 | 11.6 | 1010.1 | 0.0 | O | 49 | 0.4 |
| 15.11.2025 | 11:56 | 13.0 | 91 | 11.6 | 1010.1 | 0.0 | O | 51 | 0.4 |
| 15.11.2025 | 12:01 | 12.9 | 92 | 11.6 | 1010.1 | 0.0 | O | 47 | 0.4 |
| 15.11.2025 | 12:06 | 12.9 | 92 | 11.6 | 1010.3 | 0.0 | O | 46 | 0.4 |
| 15.11.2025 | 12:11 | 13.0 | 92 | 11.7 | 1010.2 | 1.8 | O | 44 | 0.4 |
| 15.11.2025 | 12:16 | 13.0 | 92 | 11.7 | 1010.2 | 4.3 | O | 49 | 0.4 |
| 15.11.2025 | 12:21 | 13.1 | 92 | 11.8 | 1010.0 | 4.3 | NW | 44 | 0.4 |
| 15.11.2025 | 12:26 | 13.0 | 92 | 11.7 | 1010.0 | 4.3 | NW | 47 | 0.4 |
| 15.11.2025 | 12:31 | 13.1 | 92 | 11.8 | 1009.7 | 6.1 | NO | 62 | 0.4 |
| 15.11.2025 | 12:36 | 13.0 | 92 | 11.7 | 1009.4 | 6.1 | NO | 65 | 0.4 |
| 15.11.2025 | 12:41 | 12.9 | 92 | 11.6 | 1009.4 | 0.0 | ONO | 79 | 0.4 |
| 15.11.2025 | 12:46 | 12.8 | 93 | 11.7 | 1009.2 | 4.3 | NO | 93 | 0.4 |
| 15.11.2025 | 12:51 | 12.9 | 93 | 11.8 | 1009.1 | 4.3 | ONO | 88 | 0.4 |
| 15.11.2025 | 12:56 | 13.0 | 93 | 11.9 | 1008.9 | 4.3 | ONO | 113 | 0.4 |
| 15.11.2025 | 13:01 | 13.2 | 93 | 12.1 | 1008.9 | 1.8 | O | 118 | 0.4 |
| 15.11.2025 | 13:06 | 13.3 | 93 | 12.2 | 1008.9 | 0.0 | O | 118 | 0.4 |
| 15.11.2025 | 13:11 | 13.6 | 92 | 12.3 | 1009.0 | 6.1 | WNW | 116 | 0.4 |
| 15.11.2025 | 13:16 | 13.7 | 92 | 12.4 | 1009.0 | 4.3 | WNW | 135 | 0.4 |
| 15.11.2025 | 13:21 | 13.9 | 92 | 12.6 | 1008.9 | 8.3 | NNW | 144 | 0.4 |
| 15.11.2025 | 13:27 | 13.9 | 92 | 12.6 | 1008.9 | 4.3 | WNW | 127 | 0.4 |
| 15.11.2025 | 13:32 | 13.8 | 92 | 12.5 | 1008.9 | 4.3 | WNW | 116 | 0.4 |
| 15.11.2025 | 13:37 | 13.8 | 92 | 12.5 | 1008.8 | 4.3 | NNW | 93 | 0.4 |
| 15.11.2025 | 13:42 | 13.8 | 92 | 12.5 | 1008.9 | 0.0 | NNW | 90 | 0.4 |
| 15.11.2025 | 13:47 | 13.8 | 91 | 12.4 | 1008.7 | 0.0 | NNW | 105 | 0.4 |
| 15.11.2025 | 13:52 | 13.8 | 92 | 12.5 | 1008.7 | 0.0 | NO | 90 | 0.4 |
| 15.11.2025 | 13:57 | 13.9 | 91 | 12.5 | 1008.7 | 0.0 | NO | 76 | 0.4 |
| 15.11.2025 | 14:02 | 13.9 | 91 | 12.5 | 1008.7 | 0.0 | NO | 69 | 0.4 |
| 15.11.2025 | 14:07 | 13.9 | 92 | 12.6 | 1008.9 | 0.0 | NO | 58 | 0.4 |
| 15.11.2025 | 14:12 | 13.9 | 91 | 12.5 | 1008.8 | 0.0 | NO | 81 | 0.4 |
| 15.11.2025 | 14:17 | 13.9 | 91 | 12.5 | 1008.8 | 4.3 | WNW | 67 | 0.4 |
| 15.11.2025 | 14:22 | 13.9 | 91 | 12.5 | 1008.8 | 1.8 | WNW | 74 | 0.4 |
| 15.11.2025 | 14:27 | 13.8 | 92 | 12.5 | 1008.5 | 6.1 | NNW | 58 | 0.4 |
| 15.11.2025 | 14:32 | 13.8 | 92 | 12.5 | 1008.5 | 0.0 | NNW | 47 | 0.4 |
| 15.11.2025 | 14:37 | 13.7 | 92 | 12.4 | 1008.5 | 6.1 | NW | 54 | 0.4 |
| 15.11.2025 | 14:42 | 13.6 | 92 | 12.3 | 1008.6 | 0.0 | NW | 62 | 0.4 |
| 15.11.2025 | 14:47 | 13.6 | 92 | 12.3 | 1008.7 | 0.0 | NW | 53 | 0.4 |
| 15.11.2025 | 14:52 | 13.6 | 92 | 12.3 | 1008.5 | 0.0 | NW | 65 | 0.4 |
| 15.11.2025 | 14:57 | 13.6 | 92 | 12.3 | 1008.6 | 4.3 | NNW | 63 | 0.4 |
| 15.11.2025 | 15:02 | 13.6 | 92 | 12.3 | 1008.5 | 4.3 | NNW | 91 | 0.4 |
| 15.11.2025 | 15:07 | 13.7 | 92 | 12.4 | 1008.6 | 1.8 | NNW | 88 | 0.4 |
| 15.11.2025 | 15:12 | 13.7 | 92 | 12.4 | 1008.5 | 1.8 | N | 74 | 0.4 |
| 15.11.2025 | 15:17 | 13.7 | 92 | 12.4 | 1008.6 | 4.3 | NNW | 90 | 0.4 |
| 15.11.2025 | 15:22 | 13.7 | 92 | 12.4 | 1008.5 | 4.3 | N | 83 | 0.4 |
| 15.11.2025 | 15:27 | 13.8 | 92 | 12.5 | 1008.5 | 1.8 | N | 83 | 0.4 |
| 15.11.2025 | 15:32 | 13.8 | 91 | 12.4 | 1008.6 | 0.0 | N | 74 | 0.4 |
| 15.11.2025 | 15:37 | 13.8 | 91 | 12.4 | 1008.7 | 1.8 | N | 76 | 0.4 |
| 15.11.2025 | 15:42 | 13.9 | 91 | 12.5 | 1008.7 | 0.0 | N | 76 | 0.4 |
| 15.11.2025 | 15:47 | 13.9 | 91 | 12.5 | 1008.5 | 1.8 | N | 51 | 0.4 |
| 15.11.2025 | 15:52 | 13.8 | 91 | 12.4 | 1008.8 | 0.0 | N | 40 | 0.4 |
| 15.11.2025 | 15:57 | 13.7 | 91 | 12.3 | 1008.6 | 0.0 | N | 40 | 0.4 |
| 15.11.2025 | 16:02 | 13.6 | 91 | 12.2 | 1008.7 | 0.0 | N | 35 | 0.4 |
| 15.11.2025 | 16:07 | 13.5 | 91 | 12.1 | 1008.8 | 0.0 | N | 28 | 0.4 |
| 15.11.2025 | 16:12 | 13.4 | 91 | 12.0 | 1008.7 | 0.0 | N | 21 | 0.4 |
| 15.11.2025 | 16:17 | 13.5 | 91 | 12.1 | 1008.8 | 0.0 | N | 18 | 0.4 |
| 15.11.2025 | 16:23 | 13.4 | 91 | 12.0 | 1008.8 | 0.0 | N | 14 | 0.4 |
| 15.11.2025 | 16:28 | 13.4 | 91 | 12.0 | 1008.8 | 0.0 | N | 12 | 0.4 |
| 15.11.2025 | 16:33 | 13.4 | 91 | 12.0 | 1008.8 | 1.8 | N | 12 | 0.4 |
| 15.11.2025 | 16:38 | 13.4 | 91 | 12.0 | 1008.9 | 6.1 | NW | 9 | 0.4 |
| 15.11.2025 | 16:43 | 13.3 | 91 | 11.9 | 1009.1 | 10.4 | WNW | 5 | 0.4 |
| 15.11.2025 | 16:48 | 13.2 | 91 | 11.8 | 1009.1 | 4.3 | NW | 0 | 0.4 |
| 15.11.2025 | 16:53 | 13.2 | 91 | 11.8 | 1009.2 | 6.1 | WNW | 0 | 0.4 |
| 15.11.2025 | 16:58 | 13.1 | 91 | 11.7 | 1009.4 | 6.1 | WNW | 0 | 0.4 |
| 15.11.2025 | 17:03 | 13.1 | 91 | 11.7 | 1009.5 | 4.3 | W | 0 | 0.4 |
| 15.11.2025 | 17:08 | 12.9 | 91 | 11.5 | 1009.6 | 4.3 | W | 0 | 0.4 |
| 15.11.2025 | 17:13 | 12.9 | 91 | 11.5 | 1009.4 | 1.8 | W | 0 | 0.4 |
| 15.11.2025 | 17:18 | 12.9 | 91 | 11.5 | 1009.6 | 0.0 | W | 0 | 0.4 |
| 15.11.2025 | 17:23 | 12.8 | 92 | 11.5 | 1009.6 | 0.0 | W | 0 | 0.4 |
| 15.11.2025 | 17:28 | 12.8 | 92 | 11.5 | 1010.0 | 16.9 | SSW | 0 | 0.4 |
| 15.11.2025 | 17:33 | 12.8 | 92 | 11.5 | 1009.7 | 4.3 | SW | 0 | 0.4 |
| 15.11.2025 | 17:38 | 12.8 | 92 | 11.5 | 1009.9 | 4.3 | S | 0 | 0.4 |
| 15.11.2025 | 17:43 | 12.8 | 92 | 11.5 | 1010.1 | 6.1 | SSW | 0 | 0.4 |
| 15.11.2025 | 17:48 | 12.8 | 92 | 11.5 | 1010.1 | 8.3 | SW | 0 | 0.4 |
| 15.11.2025 | 17:53 | 12.8 | 92 | 11.5 | 1010.0 | 0.0 | SSW | 0 | 0.4 |
| 15.11.2025 | 17:58 | 12.8 | 92 | 11.5 | 1009.8 | 12.6 | SW | 0 | 0.4 |
| 15.11.2025 | 18:03 | 12.8 | 92 | 11.5 | 1009.7 | 1.8 | SSW | 0 | 0.4 |
| 15.11.2025 | 18:08 | 12.9 | 92 | 11.6 | 1009.7 | 0.0 | SSW | 0 | 0.4 |
| 15.11.2025 | 18:13 | 12.9 | 92 | 11.6 | 1009.7 | 0.0 | SSW | 0 | 0.4 |
| 15.11.2025 | 18:18 | 12.9 | 92 | 11.6 | 1009.5 | 0.0 | SO | 0 | 0.4 |
| 15.11.2025 | 18:23 | 12.8 | 92 | 11.5 | 1009.5 | 8.3 | S | 0 | 0.4 |
| 15.11.2025 | 18:28 | 12.8 | 92 | 11.5 | 1009.6 | 1.8 | S | 0 | 0.4 |
| 15.11.2025 | 18:33 | 12.8 | 92 | 11.5 | 1009.6 | 4.3 | S | 0 | 0.4 |
| 15.11.2025 | 18:38 | 12.8 | 92 | 11.5 | 1009.5 | 4.3 | S | 0 | 0.4 |
| 15.11.2025 | 18:43 | 12.7 | 92 | 11.4 | 1009.6 | 1.8 | SO | 0 | 0.4 |
| 15.11.2025 | 18:48 | 12.7 | 92 | 11.4 | 1009.7 | 4.3 | SO | 0 | 0.4 |
| 15.11.2025 | 18:53 | 12.7 | 92 | 11.4 | 1009.9 | 1.8 | SSW | 0 | 0.4 |
| 15.11.2025 | 18:58 | 12.7 | 92 | 11.4 | 1010.0 | 0.0 | SSW | 0 | 0.4 |
| 15.11.2025 | 19:03 | 12.7 | 92 | 11.4 | 1010.1 | 6.1 | S | 0 | 0.4 |
| 15.11.2025 | 19:09 | 12.7 | 92 | 11.4 | 1010.2 | 4.3 | S | 0 | 0.4 |
| 15.11.2025 | 19:14 | 12.7 | 92 | 11.4 | 1010.2 | 0.0 | SW | 0 | 0.4 |
| 15.11.2025 | 19:19 | 12.7 | 92 | 11.4 | 1010.3 | 4.3 | SW | 0 | 0.4 |
| 15.11.2025 | 19:24 | 12.7 | 92 | 11.4 | 1010.2 | 0.0 | SW | 0 | 0.4 |
| 15.11.2025 | 19:29 | 12.6 | 92 | 11.3 | 1010.3 | 4.3 | SW | 0 | 0.4 |
| 15.11.2025 | 19:34 | 12.6 | 92 | 11.3 | 1010.1 | 1.8 | SW | 0 | 0.4 |
| 15.11.2025 | 19:39 | 12.6 | 92 | 11.3 | 1010.0 | 6.1 | WSW | 0 | 0.4 |
| 15.11.2025 | 19:44 | 12.6 | 92 | 11.3 | 1010.0 | 8.3 | W | 0 | 0.4 |
| 15.11.2025 | 19:49 | 12.5 | 92 | 11.2 | 1009.8 | 8.3 | W | 0 | 0.4 |
| 15.11.2025 | 19:54 | 12.5 | 92 | 11.2 | 1009.9 | 1.8 | SW | 0 | 0.4 |
| 15.11.2025 | 19:59 | 12.5 | 92 | 11.2 | 1009.8 | 6.1 | SW | 0 | 0.4 |
| 15.11.2025 | 20:04 | 12.5 | 92 | 11.2 | 1009.7 | 6.1 | W | 0 | 0.4 |
| 15.11.2025 | 20:09 | 12.5 | 92 | 11.2 | 1009.8 | 4.3 | SSW | 0 | 0.4 |
| 15.11.2025 | 20:14 | 12.5 | 92 | 11.2 | 1009.7 | 6.1 | WSW | 0 | 0.4 |
| 15.11.2025 | 20:19 | 12.5 | 91 | 11.1 | 1009.8 | 8.3 | WSW | 0 | 0.4 |
| 15.11.2025 | 20:24 | 12.4 | 91 | 11.0 | 1009.8 | 10.4 | WSW | 0 | 0.4 |
| 15.11.2025 | 20:29 | 12.4 | 91 | 11.0 | 1009.7 | 12.6 | W | 0 | 0.4 |
| 15.11.2025 | 20:34 | 12.4 | 91 | 11.0 | 1009.8 | 16.9 | WSW | 0 | 0.4 |
| 15.11.2025 | 20:39 | 12.4 | 91 | 11.0 | 1009.8 | 14.4 | SSW | 0 | 0.4 |
| 15.11.2025 | 20:44 | 12.4 | 91 | 11.0 | 1009.7 | 8.3 | WSW | 0 | 0.4 |
| 15.11.2025 | 20:49 | 12.4 | 91 | 11.0 | 1009.8 | 6.1 | WSW | 0 | 0.4 |
| 15.11.2025 | 20:54 | 12.4 | 91 | 11.0 | 1009.8 | 6.1 | WSW | 0 | 0.4 |
| 15.11.2025 | 20:59 | 12.4 | 91 | 11.0 | 1009.8 | 8.3 | W | 0 | 0.4 |
| 15.11.2025 | 21:04 | 12.3 | 90 | 10.7 | 1009.9 | 8.3 | SW | 0 | 0.4 |
| 15.11.2025 | 21:09 | 12.3 | 90 | 10.7 | 1009.8 | 8.3 | SW | 0 | 0.4 |
| 15.11.2025 | 21:14 | 12.3 | 90 | 10.7 | 1009.7 | 6.1 | SSW | 0 | 0.4 |
| 15.11.2025 | 21:19 | 12.3 | 90 | 10.7 | 1009.8 | 1.8 | SSW | 0 | 0.4 |
| 15.11.2025 | 21:24 | 12.3 | 90 | 10.7 | 1009.8 | 6.1 | SW | 0 | 0.4 |
| 15.11.2025 | 21:29 | 12.3 | 90 | 10.7 | 1009.7 | 6.1 | SW | 0 | 0.4 |
| 15.11.2025 | 21:34 | 12.2 | 90 | 10.6 | 1009.8 | 6.1 | SW | 0 | 0.4 |
| 15.11.2025 | 21:39 | 12.2 | 90 | 10.6 | 1009.8 | 8.3 | SW | 0 | 0.4 |
| 15.11.2025 | 21:44 | 12.1 | 90 | 10.5 | 1009.8 | 8.3 | SW | 0 | 0.4 |
| 15.11.2025 | 21:49 | 12.1 | 90 | 10.5 | 1009.8 | 4.3 | SSW | 0 | 0.4 |
| 15.11.2025 | 21:55 | 12.0 | 90 | 10.4 | 1009.8 | 6.1 | SW | 0 | 0.4 |
| 15.11.2025 | 22:00 | 11.9 | 90 | 10.3 | 1009.8 | 1.8 | SW | 0 | 0.4 |
| 15.11.2025 | 22:05 | 11.9 | 90 | 10.3 | 1009.8 | 4.3 | SSW | 0 | 0.4 |
| 15.11.2025 | 22:10 | 11.8 | 90 | 10.2 | 1009.8 | 0.0 | WSW | 0 | 0.4 |
| 15.11.2025 | 22:15 | 11.7 | 90 | 10.1 | 1009.7 | 4.3 | WSW | 0 | 0.4 |
| 15.11.2025 | 22:20 | 11.7 | 90 | 10.1 | 1009.6 | 4.3 | WSW | 0 | 0.4 |
| 15.11.2025 | 22:25 | 11.6 | 90 | 10.0 | 1009.7 | 4.3 | SSW | 0 | 0.4 |
| 15.11.2025 | 22:30 | 11.6 | 90 | 10.0 | 1009.7 | 6.1 | SW | 0 | 0.4 |
| 15.11.2025 | 22:35 | 11.4 | 90 | 9.8 | 1009.7 | 1.8 | W | 0 | 0.4 |
| 15.11.2025 | 22:40 | 11.3 | 91 | 9.9 | 1009.7 | 6.1 | SW | 0 | 0.4 |
| 15.11.2025 | 22:45 | 11.3 | 91 | 9.9 | 1009.6 | 8.3 | SSW | 0 | 0.4 |
| 15.11.2025 | 22:50 | 11.2 | 91 | 9.8 | 1009.6 | 12.6 | SW | 0 | 0.4 |
| 15.11.2025 | 22:55 | 11.2 | 91 | 9.8 | 1009.6 | 4.3 | SW | 0 | 0.4 |
| 15.11.2025 | 23:00 | 11.1 | 92 | 9.8 | 1009.5 | 1.8 | WSW | 0 | 0.4 |
| 15.11.2025 | 23:05 | 11.1 | 92 | 9.8 | 1009.5 | 4.3 | WSW | 0 | 0.4 |
| 15.11.2025 | 23:10 | 11.0 | 92 | 9.8 | 1009.5 | 0.0 | W | 0 | 0.4 |
| 15.11.2025 | 23:15 | 10.9 | 92 | 9.7 | 1009.5 | 4.3 | WSW | 0 | 0.4 |
| 15.11.2025 | 23:20 | 10.8 | 92 | 9.6 | 1009.4 | 6.1 | WSW | 0 | 0.4 |
| 15.11.2025 | 23:25 | 10.8 | 91 | 9.4 | 1009.4 | 1.8 | WSW | 0 | 0.4 |
| 15.11.2025 | 23:30 | 10.6 | 91 | 9.2 | 1009.4 | 0.0 | WSW | 0 | 0.4 |
| 15.11.2025 | 23:35 | 10.6 | 91 | 9.2 | 1009.3 | 4.3 | WSW | 0 | 0.4 |
| 15.11.2025 | 23:40 | 10.4 | 91 | 9.0 | 1009.5 | 1.8 | WSW | 0 | 0.4 |
| 15.11.2025 | 23:45 | 10.3 | 91 | 8.9 | 1009.4 | 6.1 | WSW | 0 | 0.4 |
| 15.11.2025 | 23:50 | 10.2 | 91 | 8.8 | 1009.5 | 4.3 | WSW | 0 | 0.4 |
| 15.11.2025 | 23:55 | 10.1 | 91 | 8.7 | 1009.5 | 4.3 | WSW | 0 | 0.4 |